Wetbulb
36.03 31.80 28.00 29.24 30.90 30.05 27.97 26.60 25.21 29.70 33.85 31.50 30.48 31.17 33.83 36.94 36.67 35.70 36.95 38.84 39.89 40.94 43.38 44.71 45.55 46.29 46.69 47.47 47.93 48.64 49.57 52.85 54.20 61.14 60.89 60.55 60.00 60.99 60.81 61.71 61.97 61.64 61.60 61.53
32.81 27.90 31.38 32.72 32.05 29.89 27.84 25.11 24.86 29.39 32.63 30.20 29.10 28.91 33.14 34.01 33.78 34.25 33.87 34.79 35.90 38.30 41.20 43.39 44.49 45.23 45.93 46.40 47.79 48.47 49.36 53.74 57.47 60.28 61.00 60.89 60.69 61.06 60.46 61.16 60.99 61.20 61.33 61.37
27.70 29.87 32.88 31.04 29.66 26.81 25.97 23.02 23.74 22.55 26.22 28.23 26.74 25.01 28.48 32.34 33.91 32.66 32.84 33.60 34.39 34.95 36.79 39.95 42.52 44.03 45.56 45.96 47.57 48.58 49.75 55.31 58.87 61.90 62.03 60.56 60.99 59.74 59.01 59.17 59.36 60.22 60.81 60.87
29.37 33.02 30.40 29.23 27.14 27.84 21.12 27.75 24.90 22.40 20.58 17.08 28.27 19.38 23.73 26.71 26.05 27.32 28.73 29.47 30.96 32.93 35.62 38.24 40.66 43.12 44.79 46.14 48.28 49.05 50.99 58.07 60.86 61.99 60.69 59.42 58.42 57.24 58.51 58.61 59.50 59.52 60.33 60.15
27.83 28.72 27.39 25.37 26.95 28.55 23.50 27.06 24.09 23.10 20.59 20.47 22.09 19.67 19.10 23.85 19.28 21.65 24.23 26.39 28.76 31.37 34.51 36.70 39.58 42.45 44.72 46.65 47.90 48.95 52.02 58.26 60.89 62.06 60.88 59.91 59.27 59.37 59.46 59.07 58.63 58.84 59.34 59.62
29.73 33.95 31.03 29.30 30.36 29.25 28.09 24.42 26.31 27.37 24.44 17.69 23.34 21.68 16.06 16.78 18.11 19.66 21.68 22.53 25.30 38.03 36.81 38.35 40.80 42.69 44.10 46.41 47.72 49.57 54.47 54.11 52.65 53.91 55.34 51.61 47.56 52.85 56.33 57.67 57.68 57.94 58.18 57.34
28.42 28.66 31.68 31.55 25.61 28.24 25.73 21.09 18.11 17.02 17.58 15.26 24.45 20.04 16.88 19.15 20.40 19.79 18.40 19.84 31.84 39.01 39.18 39.90 41.30 42.70 43.91 45.53 49.32 50.73 48.54 46.13 47.27 46.61 45.87 46.19 44.33 43.36 43.01 43.35 43.58 44.02 42.86 42.26
21.00 20.42 26.62 30.27 25.96 20.98 22.07 20.05 13.17 8.77 11.25 14.84 22.79 14.20 18.86 20.45 20.91 20.53 19.28 21.21 29.41 33.50 36.61 39.67 42.57 45.43 48.14 47.52 46.38 45.58 44.17 42.34 42.00 42.02 41.04 40.88 41.34 40.48 39.80 39.88 39.61 39.60 39.26 39.47
20.16 21.77 30.56 29.08 29.65 25.27 20.01 16.44 21.74 15.46 17.46 14.86 17.94 19.42 24.24 19.74 16.51 16.73 16.21 19.47 23.71 29.44 32.94 34.75 37.79 39.37 40.50 41.54 42.66 42.14 40.39 38.75 39.39 38.81 38.98 38.78 38.71 37.45 36.55 37.03 37.26 36.92 37.48 37.03
25.25 18.21 28.69 28.91 29.82 26.74 22.44 24.18 15.26 18.93 9.97 10.71 16.29 13.31 8.08 10.60 11.54 14.15 14.52 17.17 21.95 26.26 29.64 31.99 33.86 34.70 35.72 37.12 38.32 38.71 37.43 35.26 35.44 35.85 35.95 35.62 35.11 34.99 34.41 33.82 32.83 33.00 33.43 34.56
27.59 22.86 25.08 28.59 22.80 17.91 18.43 16.45 18.68 18.06 16.18 11.41 11.58 11.13 14.73 12.17 13.17 12.90 14.88 17.76 20.53 23.34 26.43 29.69 31.66 32.85 32.37 33.52 34.07 33.80 32.69 31.86 32.11 32.74 32.72 32.57 32.67 32.52 31.87 30.72 30.62 30.46 30.72 30.59
28.83 23.97 21.50 21.54 27.44 26.98 21.80 16.82 18.03 15.60 11.63 13.93 13.66 12.71 18.03 15.22 15.23 15.07 14.71 16.87 20.42 22.54 24.41 27.44 29.09 29.87 29.50 29.71 29.23 28.84 30.09 29.41 29.81 29.93 29.64 29.34 29.75 29.49 28.69 28.00 27.71 28.04 27.10 27.48
28.29 25.63 21.16 22.58 23.14 26.02 19.84 18.98 18.01 17.81 17.58 10.94 11.38 14.81 19.26 15.67 13.50 14.24 13.94 15.72 18.44 19.98 21.75 23.81 25.32 25.99 26.44 26.27 26.26 26.33 27.22 27.57 28.21 28.07 27.55 27.10 26.84 26.79 26.63 26.62 26.71 26.40 25.42 24.83
29.39 25.66 21.49 17.31 18.36 21.41 16.39 16.24 17.82 16.45 14.58 12.12 9.97 10.18 12.57 11.22 10.27 11.51 12.41 14.65 16.35 17.35 18.85 20.67 21.88 23.01 24.04 24.01 24.36 24.82 25.33 26.51 26.46 26.35 26.15 25.65 25.69 25.65 25.71 26.28 26.45 26.38 26.35 25.38
27.76 23.73 20.99 22.52 23.31 23.31 19.37 16.28 14.35 12.17 11.86 11.62 10.38 10.46 11.13 10.73 10.07 10.18 11.95 13.41 13.32 14.92 16.44 17.61 19.51 20.77 22.25 22.57 23.65 24.53 24.77 25.22 25.38 24.61 24.43 24.19 25.25 25.71 25.71 25.52 25.38 25.68 25.69 25.44
27.93 25.34 21.26 19.63 22.19 20.85 22.32 19.25 17.65 14.54 13.55 13.17 13.90 12.44 16.55 13.65 12.81 9.85 10.06 11.37 11.08 13.15 14.97 17.04 18.32 20.17 20.98 22.57 22.96 23.81 24.11 24.54 24.83 23.72 22.99 23.46 23.58 23.68 23.80 24.54 25.30 25.38 24.55 24.08
25.69 24.20 23.28 24.84 24.42 21.92 19.39 19.59 16.89 16.48 15.44 13.61 12.35 13.81 16.70 12.07 9.75 8.90 9.35 10.99 11.28 12.96 14.53 15.92 17.51 19.24 21.45 22.92 23.12 22.37 22.95 24.41 23.38 22.58 22.54 22.32 22.28 21.89 22.24 23.01 22.85 22.53 23.12 24.54
23.51 22.87 23.40 26.31 26.03 18.61 25.96 24.32 21.49 16.96 16.35 17.09 17.34 18.04 17.76 13.57 12.93 12.78 13.43 12.19 12.29 13.39 15.16 16.06 17.93 19.47 20.97 22.14 22.00 22.81 22.60 21.96 21.37 20.90 20.95 21.50 21.15 20.53 20.96 20.88 20.48 20.83 21.72 21.38
26.77 24.11 25.75 26.89 23.92 25.35 27.55 25.36 23.24 21.73 20.01 19.27 17.27 18.17 19.74 20.09 19.12 13.85 14.00 14.50 13.50 13.66 14.83 17.20 17.84 19.06 20.93 20.15 21.30 20.86 19.98 19.93 19.50 18.52 18.76 19.54 19.86 19.22 19.43 18.95 19.19 19.91 19.81 19.72
26.57 24.56 25.85 26.43 23.37 20.84 28.67 25.61 25.92 24.73 22.86 21.25 18.81 17.84 17.11 21.36 17.70 15.39 13.34 14.45 14.04 14.85 15.55 16.01 17.99 19.13 18.76 19.99 21.73 20.26 19.04 18.47 17.38 17.82 17.90 18.54 18.69 17.98 17.08 17.70 17.74 18.73 18.97 18.56
24.15 24.66 27.17 26.50 26.86 28.19 27.45 25.64 27.07 23.07 25.57 23.24 21.22 18.37 19.42 19.47 17.01 13.71 14.44 14.09 15.38 16.07 16.58 17.90 18.24 17.38 18.11 19.64 19.54 17.57 17.44 16.51 18.22 18.69 18.47 18.10 17.99 17.26 17.50 17.34 17.55 17.04 16.40 16.45
27.65 27.48 27.05 23.63 26.03 24.60 26.05 24.50 24.71 25.45 22.60 19.99 19.28 17.01 14.00 13.21 12.84 12.80 13.40 13.81 14.72 15.20 16.04 17.11 16.58 16.48 18.05 19.10 18.23 16.07 15.04 16.89 17.43 17.25 16.78 16.69 17.20 17.88 17.62 16.44 17.09 17.31 17.11 16.01
27.31 28.14 29.71 28.89 30.52 25.69 26.78 24.94 23.07 23.39 21.85 21.80 20.14 17.76 16.19 14.67 14.17 15.97 16.06 16.70 16.88 17.00 17.09 17.35 15.86 14.96 15.81 16.79 16.76 13.97 14.24 14.89 14.14 13.70 13.03 14.32 15.72 17.11 18.05 17.48 17.24 16.95 16.93 15.62
27.08 28.40 25.87 24.92 26.11 25.72 24.19 23.09 23.86 24.40 25.40 24.83 24.25 20.91 20.90 19.49 19.24 18.14 17.58 17.05 16.52 16.06 15.35 15.57 14.36 12.69 12.02 13.61 14.40 14.30 14.21 13.74 11.79 12.08 12.99 13.80 14.26 15.69 16.78 16.96 16.96 16.33 16.20 15.87
30.32 27.65 26.77 26.20 25.33 24.74 24.82 25.54 24.89 24.63 26.32 25.62 24.47 23.28 22.60 20.94 19.64 19.32 17.30 16.25 16.01 15.13 14.41 14.48 13.13 12.04 11.15 11.96 11.38 12.26 12.93 12.61 12.27 12.29 12.86 13.22 13.21 14.07 13.63 14.64 15.35 14.80 15.50 17.13
28.72 28.95 27.52 31.62 30.64 31.72 30.71 27.58 27.10 24.30 24.51 25.37 23.26 21.68 22.29 21.65 20.24 19.32 16.78 16.92 15.56 13.59 13.12 12.08 11.82 10.78 10.26 9.78 8.35 7.99 8.43 11.32 11.97 12.31 12.31 12.56 13.12 12.72 12.59 13.26 12.36 15.24 15.24 16.56
MSLP
1014.24 1014.34 1014.22 1014.59 1014.61 1014.42 1014.05 1013.25 1011.77 1010.62 1009.74 1009.27 1009.03 1008.29 1007.83 1007.47 1007.41 1007.39 1006.88 1006.02 1005.46 1005.06 1004.68 1004.42 1004.58 1004.88 1005.08 1004.80 1004.78 1004.67 1004.56 1004.75 1005.28 1005.18 1005.08 1005.32 1004.51 1005.66 1006.00 1007.32 1005.14 1007.27 1008.08 1008.16
1013.97 1014.19 1014.86 1015.01 1014.71 1014.24 1013.77 1012.74 1011.70 1010.56 1010.12 1010.49 1009.77 1008.67 1008.34 1008.64 1008.73 1008.96 1008.92 1008.33 1007.61 1006.84 1005.72 1004.88 1004.75 1004.68 1004.63 1004.41 1004.40 1004.29 1004.16 1004.03 1004.44 1004.28 1004.67 1004.28 1005.56 1005.44 1006.09 1006.63 1007.34 1007.22 1008.17 1009.04
1014.77 1014.97 1014.97 1014.78 1014.41 1014.01 1013.84 1012.91 1012.09 1011.92 1011.91 1011.11 1010.08 1008.85 1009.24 1009.47 1009.58 1010.46 1010.46 1010.07 1009.09 1008.25 1007.17 1006.26 1005.34 1004.74 1004.45 1004.18 1004.10 1003.98 1003.78 1003.37 1003.56 1003.59 1003.85 1005.14 1005.52 1006.06 1006.41 1006.74 1007.56 1007.61 1008.30 1009.27
1015.55 1015.32 1015.20 1015.04 1014.89 1014.44 1013.18 1013.14 1012.77 1012.05 1012.27 1011.24 1010.52 1009.91 1010.69 1011.26 1011.96 1012.26 1011.81 1010.99 1010.07 1008.95 1007.81 1006.88 1006.01 1004.96 1004.36 1004.00 1003.93 1003.86 1003.39 1002.77 1002.86 1003.29 1004.05 1004.95 1005.19 1005.51 1006.14 1006.92 1007.40 1007.86 1008.37 1009.39
1016.15 1015.73 1015.55 1015.65 1014.88 1014.63 1013.91 1013.22 1012.14 1011.45 1011.73 1011.93 1010.62 1011.76 1013.23 1013.20 1013.55 1013.26 1012.75 1011.99 1010.90 1009.26 1007.96 1006.99 1006.09 1005.19 1004.65 1003.93 1003.86 1003.62 1003.24 1002.91 1002.66 1003.32 1003.60 1004.80 1005.28 1005.86 1006.23 1006.59 1007.34 1007.77 1008.49 1009.01
1016.82 1016.34 1016.15 1015.72 1015.40 1014.68 1014.38 1012.82 1010.97 1010.61 1010.68 1010.87 1010.98 1011.91 1014.39 1015.83 1017.04 1016.15 1015.12 1013.44 1011.29 1007.74 1007.28 1006.77 1006.08 1005.35 1004.69 1004.09 1003.79 1003.55 1004.04 1004.19 1004.24 1004.33 1004.77 1005.84 1006.42 1006.52 1006.67 1007.19 1007.67 1008.14 1008.50 1008.98
1016.83 1016.01 1016.13 1016.49 1015.74 1014.86 1014.75 1013.16 1011.27 1010.70 1010.53 1011.51 1011.95 1012.76 1016.66 1018.27 1018.94 1019.09 1017.86 1015.61 1012.26 1009.18 1007.47 1006.82 1005.95 1004.95 1004.50 1004.22 1003.93 1004.99 1005.97 1005.82 1005.53 1005.75 1006.53 1007.77 1007.75 1007.85 1008.74 1009.37 1009.80 1010.42 1010.82 1010.87
1018.11 1016.50 1016.83 1017.34 1017.44 1017.54 1015.88 1015.75 1015.20 1013.89 1012.94 1012.65 1012.84 1014.87 1016.97 1019.10 1020.26 1020.27 1019.69 1017.50 1013.60 1011.51 1009.86 1008.50 1007.59 1006.73 1005.80 1005.98 1006.24 1006.58 1007.56 1007.18 1007.00 1007.42 1008.25 1009.29 1009.60 1009.57 1010.67 1011.05 1011.95 1012.54 1012.29 1012.78
1019.87 1017.83 1017.28 1017.82 1018.12 1018.24 1017.07 1017.01 1017.19 1016.18 1014.78 1014.42 1015.04 1016.23 1017.59 1019.26 1020.01 1020.05 1019.06 1017.47 1015.85 1013.99 1012.23 1011.03 1009.98 1009.13 1008.31 1008.05 1008.06 1009.22 1009.28 1008.57 1009.20 1009.61 1010.20 1011.11 1011.75 1010.97 1012.31 1013.13 1013.48 1014.31 1014.06 1014.69
1021.26 1019.77 1017.55 1017.72 1018.68 1019.08 1018.71 1018.74 1017.78 1016.81 1016.18 1015.35 1016.16 1018.52 1021.30 1021.67 1022.17 1021.91 1020.83 1019.97 1018.21 1016.18 1014.26 1013.22 1012.04 1011.47 1010.81 1010.43 1010.95 1010.86 1009.89 1009.74 1011.19 1011.87 1012.41 1012.91 1013.01 1013.47 1013.06 1014.94 1015.28 1016.17 1016.39 1016.06
1021.44 1021.17 1018.41 1017.78 1019.84 1020.36 1019.52 1019.54 1019.07 1018.88 1018.47 1018.24 1018.38 1021.12 1023.97 1024.84 1025.13 1024.56 1023.63 1022.25 1020.51 1018.42 1016.94 1015.70 1014.44 1013.69 1013.11 1013.12 1012.82 1011.85 1011.19 1011.18 1013.84 1014.41 1014.72 1015.04 1014.66 1014.64 1015.35 1016.04 1017.47 1017.89 1018.36 1017.56
1021.36 1021.25 1019.32 1019.23 1020.55 1020.69 1021.63 1021.55 1020.63 1019.71 1020.05 1020.25 1020.77 1022.64 1024.98 1026.14 1026.37 1025.96 1025.06 1023.92 1022.12 1020.40 1019.27 1018.22 1016.73 1015.76 1015.41 1015.19 1014.40 1013.18 1013.44 1014.62 1016.33 1017.06 1017.17 1016.61 1016.82 1016.05 1016.67 1018.21 1018.60 1020.01 1019.79 1020.18
1021.99 1021.14 1019.82 1019.25 1020.84 1020.67 1021.39 1022.28 1021.94 1021.91 1021.64 1022.08 1022.32 1023.19 1025.06 1026.71 1026.83 1026.81 1026.36 1025.26 1023.72 1022.33 1021.03 1020.23 1018.93 1018.31 1018.08 1016.89 1015.58 1015.37 1016.36 1016.94 1018.18 1018.11 1018.06 1018.23 1018.08 1018.17 1019.22 1019.46 1020.98 1021.92 1021.69 1021.85
1022.61 1022.05 1021.99 1022.32 1022.97 1023.45 1023.29 1023.22 1022.87 1022.59 1022.58 1023.46 1024.18 1025.08 1026.45 1027.22 1027.43 1027.70 1027.53 1026.72 1025.32 1024.40 1023.75 1021.47 1020.85 1020.49 1019.90 1018.37 1017.74 1018.42 1018.42 1020.03 1020.13 1019.70 1019.85 1019.88 1020.07 1020.83 1021.35 1022.17 1022.74 1023.17 1023.33 1023.28
1022.78 1022.31 1022.46 1022.35 1022.87 1023.27 1023.69 1023.84 1024.20 1024.36 1024.97 1025.00 1025.15 1026.35 1028.27 1028.29 1029.11 1028.81 1029.00 1028.50 1026.43 1025.33 1024.95 1024.62 1024.26 1022.58 1020.87 1019.40 1020.30 1021.21 1021.39 1021.29 1021.54 1021.34 1021.62 1021.70 1022.09 1022.47 1023.26 1024.07 1023.91 1025.11 1025.05 1024.92
1023.07 1022.49 1022.33 1021.46 1021.87 1022.77 1023.08 1023.87 1024.06 1025.15 1026.06 1025.94 1026.02 1026.24 1028.78 1030.16 1030.16 1029.08 1028.93 1029.49 1028.50 1028.05 1026.78 1026.21 1025.03 1023.62 1022.07 1022.88 1023.24 1023.04 1022.82 1022.90 1022.68 1022.57 1023.01 1023.91 1024.61 1025.10 1025.67 1024.93 1025.89 1026.65 1026.09 1026.68
1023.20 1022.69 1022.12 1020.59 1020.26 1021.43 1022.80 1024.05 1025.21 1025.21 1026.79 1027.80 1027.18 1027.74 1029.53 1030.11 1030.44 1030.86 1030.38 1030.32 1030.06 1029.29 1028.56 1027.41 1026.42 1025.42 1025.06 1024.95 1024.74 1024.46 1024.19 1024.39 1024.27 1024.50 1025.20 1025.55 1025.82 1025.68 1026.49 1027.42 1027.55 1027.32 1027.44 1028.29
1023.50 1022.69 1021.91 1020.83 1019.82 1020.48 1022.02 1023.64 1024.89 1025.61 1026.36 1027.70 1028.03 1028.34 1028.95 1030.45 1030.98 1031.68 1031.62 1031.55 1031.33 1030.82 1029.58 1028.49 1027.71 1027.17 1026.73 1026.27 1025.84 1025.82 1025.87 1025.90 1025.95 1026.34 1026.64 1026.95 1027.26 1027.58 1028.37 1028.38 1028.25 1028.89 1029.43 1029.40
1023.43 1022.54 1021.39 1020.49 1020.24 1020.66 1021.06 1022.94 1024.12 1024.89 1026.28 1026.98 1028.00 1028.72 1028.96 1029.78 1030.97 1031.89 1032.31 1032.23 1031.83 1031.34 1030.84 1030.15 1029.32 1028.67 1028.11 1027.71 1027.60 1027.30 1027.40 1027.50 1027.60 1027.99 1028.53 1029.01 1029.09 1029.41 1029.74 1029.45 1029.99 1030.40 1030.59 1030.60
1022.77 1022.37 1021.16 1020.11 1019.76 1020.08 1020.60 1022.32 1023.42 1024.43 1025.77 1026.75 1027.71 1028.54 1029.18 1029.25 1030.10 1031.97 1032.61 1032.55 1032.42 1032.05 1031.62 1030.91 1030.34 1029.93 1029.26 1029.13 1028.98 1028.67 1028.66 1028.79 1029.27 1029.89 1029.92 1030.19 1030.42 1030.57 1030.26 1031.06 1031.72 1031.57 1031.27 1031.48
1021.69 1021.19 1020.40 1019.75 1019.51 1020.02 1020.90 1022.21 1023.30 1024.32 1025.60 1026.14 1027.30 1028.24 1028.85 1029.60 1030.95 1031.81 1032.60 1032.88 1032.74 1032.46 1032.09 1031.79 1031.46 1031.00 1030.84 1030.76 1030.38 1030.15 1030.47 1030.74 1031.32 1031.41 1031.64 1031.80 1031.90 1031.98 1032.40 1032.76 1032.63 1032.76 1032.53 1032.49
1020.28 1019.87 1019.73 1019.85 1019.83 1020.43 1021.45 1022.81 1023.56 1024.37 1025.12 1026.20 1027.52 1028.49 1029.26 1030.11 1031.17 1031.82 1032.19 1032.29 1032.40 1032.34 1032.25 1032.06 1031.81 1031.78 1031.87 1031.83 1031.73 1031.87 1031.95 1032.66 1032.85 1032.87 1033.11 1033.24 1033.13 1033.30 1033.57 1033.60 1033.57 1033.44 1033.62 1033.53
1020.19 1019.63 1019.34 1019.44 1019.72 1020.59 1021.58 1022.52 1023.52 1024.20 1024.71 1026.16 1027.07 1028.34 1028.97 1029.86 1030.71 1031.19 1031.67 1031.97 1032.12 1032.17 1032.22 1032.47 1032.63 1032.85 1032.95 1032.90 1032.84 1032.92 1033.69 1033.96 1034.19 1034.28 1034.23 1033.83 1033.76 1034.02 1033.95 1033.95 1034.10 1034.22 1034.46 1034.10
1019.48 1019.53 1019.49 1019.64 1019.95 1020.67 1021.69 1022.87 1023.50 1024.10 1024.47 1025.47 1026.40 1027.55 1028.45 1029.08 1029.97 1030.69 1031.29 1031.79 1032.12 1032.39 1032.66 1032.99 1033.28 1033.60 1033.86 1034.06 1034.04 1034.16 1034.56 1034.77 1034.83 1034.76 1034.93 1035.02 1034.97 1035.10 1035.02 1035.15 1035.44 1035.27 1035.34 1035.42
1018.93 1019.14 1018.70 1018.86 1019.70 1020.64 1021.41 1022.07 1022.84 1023.83 1024.42 1025.13 1026.24 1027.12 1027.77 1028.67 1029.43 1030.03 1030.81 1031.48 1032.01 1032.56 1033.12 1033.50 1033.81 1034.15 1034.53 1034.90 1035.29 1035.60 1035.70 1035.61 1035.38 1035.33 1035.41 1035.63 1035.88 1035.95 1036.27 1036.52 1036.64 1036.39 1036.12 1035.54
1017.38 1016.55 1016.74 1015.70 1015.91 1016.92 1017.87 1020.32 1021.96 1023.04 1023.80 1024.79 1025.68 1026.77 1027.56 1028.20 1028.85 1029.77 1030.71 1031.47 1032.17 1032.95 1033.54 1034.00 1034.44 1034.94 1035.44 1035.84 1036.18 1036.28 1036.25 1036.07 1035.93 1036.02 1036.20 1036.39 1036.56 1036.82 1036.93 1036.74 1036.61 1036.52 1036.52 1036.32
Wind_Speed
5 6 10 14 13 14 16 19 24 24 23 14 15 16 17 14 13 15 17 16 14 15 16 15 13 11 14 12 13 13 11 10 7 7 4 4 5 5 4 1 3 9 5 10
2 5 9 9 10 14 22 25 23 24 16 9 14 20 17 2 4 12 15 15 15 15 18 13 13 11 13 11 12 13 12 13 9 6 4 3 3 3 5 6 6 8 6 6
3 7 10 10 15 19 21 24 17 21 23 26 19 20 3 5 10 18 17 17 16 16 15 15 14 12 13 11 11 11 12 13 9 8 6 4 7 5 4 6 5 6 6 7
3 8 12 14 17 23 20 18 25 25 14 6 4 2 13 13 19 21 22 22 21 19 16 14 14 12 12 10 9 10 12 10 10 8 7 11 8 8 6 9 7 9 9 7
8 11 16 14 20 25 16 28 24 21 14 10 15 6 10 16 26 30 30 28 25 22 16 15 13 11 12 10 8 9 11 11 9 11 10 8 7 5 5 5 9 9 10 9
7 8 6 12 22 19 27 22 14 6 5 4 11 4 12 15 22 28 30 31 33 13 5 10 12 12 12 10 9 7 8 10 14 12 14 11 13 10 4 5 7 6 6 5
13 0 10 16 21 10 21 19 4 2 4 6 10 8 9 21 21 23 27 29 25 19 7 5 6 6 5 5 5 14 11 13 14 17 18 14 14 17 15 13 12 10 8 10
9 4 12 11 11 19 15 12 6 7 6 6 9 8 5 23 20 21 20 21 25 23 20 19 18 16 14 15 16 16 12 17 19 19 19 16 17 13 13 16 13 11 11 12
8 5 7 6 10 20 12 10 10 6 7 4 4 7 8 28 25 27 28 29 27 23 19 18 17 15 16 16 18 14 14 21 20 21 18 18 16 20 19 18 16 12 12 13
5 9 4 6 7 19 8 10 4 4 8 6 6 6 10 26 26 27 30 28 25 23 22 19 17 16 15 16 14 13 20 25 21 20 18 16 18 18 23 18 20 16 15 16
4 3 11 4 12 20 13 8 6 3 5 6 6 4 8 17 18 20 21 22 22 22 20 18 15 15 16 13 13 16 22 29 21 19 19 17 19 20 22 21 18 18 16 19
4 4 7 3 5 11 20 12 6 5 5 4 5 5 11 16 15 16 18 21 21 21 20 18 17 17 15 12 15 22 23 24 19 18 18 20 20 22 25 22 22 19 21 20
7 6 8 1 5 11 9 20 8 1 3 7 6 4 14 15 16 17 18 19 19 21 22 19 19 15 12 14 19 22 21 21 17 18 20 21 23 23 23 23 21 18 20 21
3 4 5 6 2 5 13 16 16 2 3 4 3 14 16 17 17 17 18 19 18 17 19 20 18 15 13 17 21 19 21 17 17 20 20 22 22 22 21 20 20 20 18 20
3 2 2 3 4 2 9 13 12 10 6 4 9 7 13 13 14 14 13 16 19 20 20 18 13 12 16 21 18 17 18 18 17 20 21 21 20 20 20 19 21 18 18 19
3 1 2 4 6 7 9 13 11 7 7 4 6 4 10 8 8 15 16 16 17 16 17 16 15 17 21 16 15 16 18 18 18 21 21 19 18 18 17 20 18 16 19 18
4 3 3 6 3 4 1 7 7 5 6 3 6 7 8 8 12 12 14 13 13 13 12 13 14 15 15 15 15 17 17 17 19 19 18 17 17 19 18 16 16 17 17 14
4 1 1 4 6 7 2 6 8 5 3 4 2 4 4 6 6 8 10 10 9 8 10 13 12 13 14 15 16 16 17 17 18 18 17 17 16 17 15 15 16 15 12 13
5 3 0 2 4 4 3 7 4 3 4 2 2 4 4 4 5 10 10 9 10 11 10 9 10 10 12 13 13 15 16 16 17 17 16 14 14 14 13 15 13 12 11 11
5 3 3 2 2 2 3 5 5 2 3 5 3 1 1 3 4 4 8 8 8 8 7 9 10 10 13 13 12 15 16 16 16 14 15 14 13 12 14 13 11 10 12 11
3 3 2 2 2 2 3 7 6 3 5 8 6 3 4 4 4 3 3 5 6 6 6 7 8 10 10 9 10 14 14 15 13 12 12 12 12 13 12 11 10 10 11 11
3 5 3 2 3 3 7 7 4 2 4 10 8 6 9 9 6 4 4 4 5 6 8 9 10 11 11 11 12 14 15 11 11 11 11 11 11 9 8 9 9 9 7 8
2 3 1 4 1 2 6 1 2 4 6 8 11 9 11 11 8 8 8 7 6 7 7 7 9 10 10 9 9 12 10 9 8 8 8 9 9 9 9 10 8 7 6 7
5 4 3 2 4 4 6 4 7 7 9 14 12 15 14 13 12 11 9 8 7 6 7 6 8 8 9 8 9 10 8 7 6 9 8 8 9 8 7 6 6 6 6 4
1 9 5 4 3 2 7 11 14 11 10 13 14 14 13 14 13 13 11 10 9 8 6 5 6 7 7 6 7 6 6 4 7 7 7 7 6 6 6 7 5 5 7 6
10 10 9 7 14 5 13 18 19 17 17 15 15 14 12 13 13 12 9 8 9 8 8 6 5 6 6 5 5 4 5 4 4 6 5 4 4 4 4 4 4 12 12 13
Wind_Direction
6 293 11 347 322 313 301 290 286 287 294 289 272 276 290 329 15 5 355 338 312 285 277 270 276 281 272 271 272 270 272 252 227 208 200 252 173 180 122 87 180 139 166 164
359 45 341 329 304 311 316 304 295 292 322 315 291 287 299 95 46 27 360 347 334 321 325 287 274 268 265 266 267 272 277 264 220 217 199 158 175 158 155 143 149 137 158 200
6 343 323 305 314 325 323 305 316 318 317 304 284 277 200 3 29 2 349 340 331 319 306 298 295 278 266 256 258 273 289 259 230 210 156 154 158 134 130 144 151 146 154 209
338 336 334 316 315 332 314 335 311 301 298 270 2 57 40 13 359 351 348 341 329 314 298 284 277 276 265 253 261 279 282 240 214 168 158 175 175 170 172 177 172 173 168 192
8 338 344 329 330 331 307 319 305 287 263 265 254 231 22 17 358 350 346 339 325 307 280 273 271 271 272 274 264 276 282 251 205 167 150 184 181 174 149 153 181 175 179 170
299 301 314 328 330 329 337 321 296 277 185 170 28 256 39 15 353 343 340 335 326 342 274 270 267 260 252 252 251 269 39 50 64 64 77 74 67 44 77 147 176 175 175 131
325 47 345 6 335 339 345 347 342 69 43 34 358 67 64 12 358 350 336 328 333 6 8 311 276 247 232 260 355 68 65 64 66 69 69 67 73 74 56 53 53 52 53 57
346 333 9 5 18 342 346 1 12 342 2 344 31 11 88 13 355 348 338 336 360 3 9 14 13 19 58 65 69 71 73 74 66 69 65 62 61 74 67 67 62 56 64 61
332 292 3 45 358 12 333 8 313 287 219 263 29 9 148 349 351 349 354 357 357 359 6 12 14 32 43 51 62 76 87 76 67 71 73 71 74 74 70 65 66 61 56 74
345 293 8 29 326 23 10 1 15 329 350 20 71 60 341 346 343 345 351 349 349 354 5 14 17 31 37 48 65 81 74 70 59 62 66 71 71 72 74 64 61 56 56 62
291 238 319 344 26 27 13 21 351 259 11 334 327 53 5 348 345 343 342 345 349 354 2 12 17 32 40 48 56 69 68 67 60 61 63 65 68 73 76 68 62 59 62 57
33 288 293 41 156 78 37 13 356 336 8 21 272 69 32 6 353 352 347 350 352 358 5 14 17 33 39 41 57 61 63 72 66 68 70 68 70 69 71 68 63 54 60 62
341 353 316 141 171 20 27 11 3 70 276 28 328 49 33 6 359 1 358 353 356 2 8 15 26 24 37 46 54 57 60 66 67 69 68 68 68 65 68 72 72 73 73 70
288 9 34 62 54 345 4 5 13 354 33 319 25 309 1 0 352 356 359 359 1 11 18 11 22 23 37 51 56 60 64 68 73 71 69 69 68 71 70 71 72 67 65 72
359 338 283 232 254 27 38 13 15 48 24 21 320 346 5 353 355 350 2 9 6 10 15 17 13 24 48 49 55 63 72 67 69 73 71 69 69 69 70 73 69 68 65 67
358 350 289 248 215 232 27 30 356 21 34 20 310 358 35 25 2 1 7 16 11 11 11 11 17 34 40 50 64 68 68 70 70 70 69 70 72 76 73 68 70 71 70 68
332 325 303 323 346 189 189 24 30 328 34 337 15 335 15 23 28 18 1 9 8 2 10 14 25 38 46 60 64 63 63 66 68 70 69 70 69 68 66 70 69 63 63 65
311 287 281 318 314 22 32 123 131 104 15 37 268 320 3 76 72 37 13 8 4 359 24 24 29 42 45 51 55 65 64 65 65 65 64 63 65 66 65 64 63 62 63 62
212 267 163 358 20 336 221 150 193 212 31 11 342 346 309 204 199 61 22 23 23 23 22 27 31 34 55 59 61 66 66 66 65 62 62 63 67 69 67 65 63 61 62 63
186 232 282 177 225 271 85 127 147 73 81 159 152 170 358 284 90 63 5 18 29 34 27 30 40 48 48 47 61 66 65 63 63 63 62 58 61 65 61 60 59 57 56 60
202 193 244 173 245 201 95 139 161 278 122 144 157 164 175 120 70 70 44 60 55 49 61 60 63 66 66 65 68 69 70 67 69 68 69 66 64 63 61 59 54 56 55 51
242 183 176 123 226 267 149 125 209 121 72 123 129 116 102 108 122 126 97 76 80 79 75 66 71 65 61 68 79 81 75 74 75 75 69 62 58 63 62 63 57 51 57 53
259 284 324 234 7 100 189 96 100 153 134 152 141 151 144 142 162 159 142 128 107 96 86 80 84 80 63 62 76 85 84 89 85 78 69 60 59 56 52 50 48 51 47 42
211 184 248 299 163 201 199 186 167 175 147 152 149 156 162 158 159 155 152 150 140 130 118 111 105 96 89 76 78 85 91 82 70 71 68 63 62 58 57 57 48 42 40 41
69 154 189 247 152 152 204 200 174 162 144 150 152 162 165 160 166 164 162 162 157 147 133 126 119 111 104 97 83 68 76 60 81 76 73 72 67 63 75 58 55 63 39 43
188 180 186 213 173 174 183 180 171 164 165 162 161 166 172 176 169 168 167 162 155 155 153 147 133 119 105 86 71 46 21 22 76 86 77 73 84 79 61 58 76 50 42 29